Weather Roundup
Issued by NWS Chicago, IL

Home | Current Version | Previous Version | Text Only | Print | Product List | Glossary Off
Versions: 1 2 3 4 5 6 7 8 9 10 11 12 13 14 15 16 17 18 19 20 21 22 23 24 25 26 27 28 29 30 31 32 33 34 35 36 37 38 39 40 41 42 43 44 45 46 47 48 49 50

000
NZUS59 KLOT 241903
HRRLOT

CHICAGO AREA WEATHER ROUNDUP
NATIONAL WEATHER SERVICE CHICAGO/ROMEOVILLE IL
100 PM CST TUE JAN 24 2017

NOTE: "FAIR" INDICATES FEW OR NO CLOUDS BELOW 12,000 FEET WITH NO
SIGNIFICANT WEATHER AND/OR OBSTRUCTIONS TO VISIBILITY.

* THESE STATIONS ARE NOT UNDER NWS QUALITY CONTROL. THEY ALSO MAY NOT
  REPORT WEATHER SUCH AS PRECIPITATION OR FOG.

ILZ005-006-012>014-019>023-242000-
NORTHEAST ILLINOIS

CITY           SKY/WX    TMP DP  RH WIND       PRES   REMARKS
OHARE          CLOUDY    35  31  85 W3        29.85F
MIDWAY         CLOUDY    37  31  78 W5        29.86F
AURORA         CLOUDY    37  31  78 CALM      29.86F
LANSING*       CLOUDY    37  33  85 CALM      29.86F
JOLIET*        CLOUDY    39  33  79 N5        29.86F
WAUKEGAN       CLOUDY    37  32  82 W3        29.84F
DUPAGE AIRPORT CLOUDY    36  30  79 CALM      29.85F
WHEELING       CLOUDY    36  31  82 VRB3      29.87F
KANKAKEE*      CLOUDY    38  32  77 CALM      29.86F
MORRIS*        CLOUDY    38  32  78 N3        29.84F
LEWIS AIRPORT* CLOUDY    37  34  89 W7        29.86F
NORTHERLY ISL    N/A     36  30  79 SW5         N/A
$$

WIZ051-052-058>065-066-070>072-242000-
SOUTHEAST WISCONSIN

CITY           SKY/WX    TMP DP  RH WIND       PRES   REMARKS
MILWAUKEE      CLOUDY    38  32  79 VRB5      29.84F
KENOSHA*       CLOUDY    37  33  85 W7        29.84F
RACINE*        CLOUDY    37  32  82 VRB3      29.85F
WAUKESHA       CLOUDY    36  32  87 W6        29.84F
$$

INZ001>003-010>013-019-020-242000-
NORTHWEST INDIANA

CITY           SKY/WX    TMP DP  RH WIND       PRES   REMARKS
GARY*          CLOUDY    37  32  81 CALM      29.87F
MICHIGAN CITY* NOT AVBL
RENSSELAER*    NOT AVBL
VALPARAISO     CLOUDY    39  34  82 NW5       29.86F HAZE
$$

LMZ740>746-242000-
SOUTHERN LAKE MICHIGAN

STATION/POSITION TIME  SKY/WX   TEMP WIND        PRES    VSBY
                                AIR  DIR/SP/G
                 (UTC)          (F)  (DEG/KT/KT) (MB)    (MI)
HARRISON CRIB    1840            36  330/  3/  4   N/A
BURNHAM HARBOR   1900            36  260/  3/  9   N/A
CALUMET HARBOR   1830            35   20/  5/  7 1011.0F
BURNS HARBOR     1840            35  330/  4/  6 1012.2F
MICHIGAN CITY    NOT AVBL
$$

ABBREVIATIONS USED IN REMARKS
   TC - TEMPERATURE IN CELSIUS
  WCI - WIND CHILL INDEX
   HX - HEAT INDEX
  VSB - VISIBILITY
$$



USA.gov is the U.S. government's official web portal to all federal, state and local government web resources and services.